User: anonymous   Login
Location: ROBOsky.com Wild Flower Ridge Observatory
(43.9736°N, 79.9739°W)
Time: 17:58:56
(UTC-04:00)
Language:

Cosmos 1190 Rocket - Orbit

View from above orbital plane
View from above orbital plane
View from above satellite
View from above satellite

Ground track
Ground track

The orbit data is extracted from the following two-line orbital elements,

1 11870U 80056B   16175.92842289 +.00000094 +00000-0 +40628-4 0  9997
2 11870 074.0515 145.5834 0016682 191.7445 168.3322 14.36802845859519
Epoch (UTC): 23 June 2016 22:16:55
Eccentricity: 0.0016682
inclination: 74.0515°
perigee height: 757 km
apogee height: 781 km
right ascension of ascending node: 145.5834°
argument of perigee: 191.7445°
revolutions per day: 14.36802845
mean anomaly at epoch: 168.3322°
orbit number at epoch: 85951

The dashed part of the orbit path shows where the satellite is in the earth's shadow,  

DLR